Skip Page Navigation
NASA JPL Caltech
NASA Logo - Jet Propulsion Laboratory + View the NASA Portal
+ Near-Earth Object (NEO) Program
Search JPL
JPL Home Earth Solar System Stars & Galaxies Technology
JPL Solar System Dynamics
BODIES ORBITS EPHEMERIDES TOOLS PHYSICAL DATA DISCOVERY FAQ SITE MAP
JPL Small-Body Database Browser
Search: [ help ]  
(2004 TP1)
Classification: Apollo [NEO, PHA]          SPK-ID: 3255980
Ephemeris | Orbit Diagram | Orbital Elements | Physical Parameters | Close-Approach Data ]

[ hide orbit diagram ]
Orbit Diagram
Note: Make sure you have Java enabled on your browser to see the applet. This applet is provided as a 3D orbit visualization tool. The applet was implemented using 2-body methods, and hence should not be used for determining accurate long-term trajectories (over several years or decades) or planetary encounter circumstances. For accurate long-term ephemerides, please instead use our Horizons system.
Orbit Viewer

Additional Notes: the orbits shown in the applet are color coded. The planets are white lines, and the asteroid/comet is a blue line. The bright white line indicates the portion of the orbit that is above the ecliptic plane, and the darker portion is below the ecliptic plane. Likewise for the asteroid/comet orbit, the light blue indicates the portion above the ecliptic plane, and the dark blue the portion below the ecliptic plane.

Orbit Viewer applet originally written and kindly provided by Osamu Ajiki (AstroArts), and further modified by Ron Baalke (JPL).


Orbital Elements at Epoch 2456400.5 (2013-Apr-18.0) TDB
Reference: JPL 22 (heliocentric ecliptic J2000)
 Element Value Uncertainty (1-sigma)   Units 
e .3891667482467996 8.8091e-07  
a 1.290464260000095 1.0869e-07 AU
q .7882584802071455 1.137e-06 AU
i 7.484645130490353 2.0329e-05 deg
node 30.13150911252915 1.7223e-05 deg
peri 87.68461925967122 0.00012942 deg
M 239.6030840655665 0.00026043 deg
tp 2456579.573062083358
(2013-Oct-14.07306208)
0.00040994 JED
period 535.4481204910304
1.47
6.7648e-05
1.852e-07
d
yr
n .6723340436228696 8.4942e-08 deg/d
Q 1.792670039793044 1.5099e-07 AU
  Orbit Determination Parameters
   # obs. used (total)      130  
   data-arc span      1070 days (2.93 yr)  
   first obs. used      2004-10-05  
   last obs. used      2007-09-10  
   planetary ephem.      DE405  
   SB-pert. ephem.      SB405-CPV-2  
   condition code      1  
   fit RMS      .52353  
   data source      ORB  
   producer      Otto Matic  
   solution date      2011-Sep-14 19:58:20  

Additional Information
 Earth MOID = .0277576 AU 
 T_jup = 4.942 
[ show covariance matrix ]

Ephemeris | Orbit Diagram | Orbital Elements | Physical Parameters | Close-Approach Data ]

Physical Parameter Table
Parameter Symbol Value Units Sigma Reference Notes
absolute magnitude H 20.597 mag .51479 22 autocmod 2.5a

[ show close-approach data ]
Ephemeris | Orbit Diagram | Orbital Elements | Physical Parameters | Close-Approach Data ]
ABOUT SSD CREDITS/AWARDS PRIVACY/COPYRIGHT GLOSSARY LINKS
FirstGov 2013-Jun-19 04:09 UT
(server date/time)  
NASA Home Page
Site Manager:   Donald K. Yeomans
Webmaster  Alan B. Chamberlin